When you browse on this site, cookies collect data to enhance your experience and personalize the content and advertising you see.
Visit our Privacy Policy to learn more. By continuing to use the site, you agree to this use of cookies and data.
  • In Latvia
  • List of Countries
  • For 7 days
  • Water Temperature
  • Weather Map
  • Weather Widgets
  • user-avatar
    Login

    Hourly Weather Hulivka

    Today, 9 April, Thursday

    Time Temperature Precipitation Wind Pressure Humidity
    00:00 +9°C° 0 mm 1 mps 754 mmHg 62%
    01:00 +9°C° 0 mm 1 mps 753 mmHg 63%
    02:00 +8°C° 0 mm 1 mps 753 mmHg 65%
    03:00 +8°C° 0 mm 1 mps 753 mmHg 67%
    04:00 +6°C° 0 mm 2 mps 752 mmHg 68%
    05:00 +6°C° 0 mm 2 mps 752 mmHg 70%
    06:00 +8°C° 0 mm 2 mps 752 mmHg 66%
    07:00 +9°C° 0 mm 2 mps 752 mmHg 63%
    08:00 +10°C° 0 mm 3 mps 751 mmHg 60%
    09:00 +13°C° 0 mm 3 mps 751 mmHg 54%
    10:00 +16°C° 0 mm 3 mps 750 mmHg 48%
    11:00 +18°C° 0 mm 4 mps 750 mmHg 42%
    12:00 +19°C° 0 mm 4 mps 749 mmHg 41%
    13:00 +20°C° 0 mm 4 mps 749 mmHg 39%
    14:00 +21°C° 0 mm 5 mps 748 mmHg 38%
    15:00 +20°C° 0 mm 5 mps 748 mmHg 38%
    16:00 +20°C° 0 mm 5 mps 748 mmHg 38%
    17:00 +20°C° 0 mm 5 mps 747 mmHg 38%
    18:00 +18°C° 0 mm 4 mps 747 mmHg 42%
    19:00 +15°C° 0 mm 4 mps 747 mmHg 46%
    20:00 +13°C° 0 mm 3 mps 747 mmHg 50%
    21:00 +12°C° 0 mm 4 mps 747 mmHg 57%
    22:00 +12°C° 0 mm 4 mps 747 mmHg 64%
    23:00 +10°C° 0 mm 5 mps 747 mmHg 71%

    Tomorrow, 10 April, Friday

    Time Temperature Precipitation Wind Pressure Humidity
    00:00 +9°C° 0 mm 5 mps 748 mmHg 73%
    01:00 +8°C° 0 mm 4 mps 748 mmHg 74%
    02:00 +7°C° 0 mm 4 mps 748 mmHg 76%
    03:00 +6°C° 0 mm 4 mps 748 mmHg 78%
    04:00 +5°C° 0 mm 4 mps 749 mmHg 79%
    05:00 +4°C° 0 mm 4 mps 749 mmHg 81%
    06:00 +5°C° 0 mm 4 mps 750 mmHg 77%
    07:00 +5°C° 0 mm 4 mps 750 mmHg 72%
    08:00 +5°C° 0 mm 4 mps 751 mmHg 68%
    09:00 +6°C° 0 mm 5 mps 751 mmHg 60%
    10:00 +7°C° 0 mm 5 mps 751 mmHg 52%
    11:00 +8°C° 0 mm 5 mps 752 mmHg 44%
    12:00 +9°C° 0 mm 5 mps 752 mmHg 43%
    13:00 +9°C° 0 mm 5 mps 752 mmHg 42%
    14:00 +10°C° 0 mm 5 mps 752 mmHg 41%
    15:00 +10°C° 0 mm 5 mps 752 mmHg 40%
    16:00 +9°C° 0 mm 5 mps 751 mmHg 39%
    17:00 +9°C° 0 mm 5 mps 751 mmHg 38%
    18:00 +8°C° 0 mm 4 mps 751 mmHg 43%
    19:00 +8°C° 0 mm 3 mps 752 mmHg 47%
    20:00 +6°C° 0 mm 2 mps 752 mmHg 51%
    21:00 +6°C° 0 mm 2 mps 752 mmHg 53%
    22:00 +5°C° 0 mm 2 mps 752 mmHg 55%
    23:00 +4°C° 0 mm 2 mps 752 mmHg 57%

    Day after tomorrow, 11 April, Saturday

    Time Temperature Precipitation Wind Pressure Humidity
    00:00 +4°C° 0 mm 2 mps 752 mmHg 60%
    01:00 +4°C° 0 mm 2 mps 752 mmHg 63%
    02:00 +3°C° 0 mm 2 mps 753 mmHg 66%
    03:00 +3°C° 0 mm 2 mps 753 mmHg 70%
    04:00 +2°C° 0 mm 2 mps 753 mmHg 75%
    05:00 0°C° 0 mm 3 mps 753 mmHg 79%
    06:00 +1°C° 0 mm 3 mps 754 mmHg 68%
    07:00 +2°C° 0 mm 3 mps 754 mmHg 57%
    08:00 +1°C° 0 mm 4 mps 754 mmHg 46%
    09:00 +4°C° 0 mm 4 mps 755 mmHg 41%
    10:00 +5°C° 0 mm 4 mps 755 mmHg 36%
    11:00 +7°C° 0 mm 4 mps 756 mmHg 32%
    12:00 +8°C° 0 mm 3 mps 755 mmHg 30%
    13:00 +9°C° 0 mm 3 mps 755 mmHg 29%
    14:00 +10°C° 0 mm 3 mps 755 mmHg 28%
    15:00 +10°C° 0 mm 3 mps 755 mmHg 29%
    16:00 +10°C° 0 mm 3 mps 755 mmHg 30%
    17:00 +10°C° 0 mm 3 mps 755 mmHg 31%
    18:00 +8°C° 0 mm 2 mps 755 mmHg 36%
    19:00 +6°C° 0 mm 2 mps 755 mmHg 41%
    20:00 +6°C° 0 mm 1 mps 755 mmHg 46%
    21:00 +5°C° 0 mm 1 mps 755 mmHg 48%
    22:00 +5°C° 0 mm 1 mps 755 mmHg 49%
    23:00 +5°C° 0 mm 1 mps 756 mmHg 50%

    12 April, Sunday

    Time Temperature Precipitation Wind Pressure Humidity
    00:00 +4°C° 0 mm 1 mps 755 mmHg 51%
    01:00 +3°C° 0 mm 2 mps 755 mmHg 52%
    02:00 +2°C° 0 mm 2 mps 755 mmHg 54%
    03:00 +2°C° 0 mm 2 mps 755 mmHg 55%
    04:00 +2°C° 0 mm 2 mps 755 mmHg 57%
    05:00 +2°C° 0 mm 2 mps 755 mmHg 58%
    06:00 +2°C° 0 mm 3 mps 755 mmHg 54%
    07:00 +4°C° 0 mm 4 mps 755 mmHg 49%
    08:00 +5°C° 0 mm 4 mps 754 mmHg 45%
    09:00 +6°C° 0 mm 4 mps 754 mmHg 41%
    10:00 +8°C° 0 mm 4 mps 754 mmHg 38%
    11:00 +10°C° 0 mm 4 mps 753 mmHg 34%
    12:00 +11°C° 0 mm 4 mps 753 mmHg 34%
    13:00 +12°C° 0 mm 4 mps 752 mmHg 33%
    14:00 +12°C° 0 mm 4 mps 752 mmHg 33%
    15:00 +12°C° 0 mm 4 mps 751 mmHg 36%
    16:00 +12°C° 0 mm 3 mps 750 mmHg 38%
    17:00 +12°C° 0 mm 3 mps 750 mmHg 41%
    18:00 +11°C° 0 mm 3 mps 749 mmHg 46%
    19:00 +10°C° 0 mm 2 mps 748 mmHg 52%
    20:00 +9°C° 0 mm 2 mps 748 mmHg 58%
    21:00 +8°C° 0 mm 2 mps 747 mmHg 61%
    22:00 +8°C° 0 mm 3 mps 747 mmHg 64%
    23:00 +7°C° 0 mm 3 mps 747 mmHg 67%

    13 April, Monday

    Time Temperature Precipitation Wind Pressure Humidity
    00:00 +7°C° 0 mm 3 mps 746 mmHg 70%
    01:00 +7°C° 0 mm 3 mps 746 mmHg 72%
    02:00 +6°C° 0 mm 4 mps 745 mmHg 75%
    03:00 +6°C° 0 mm 4 mps 745 mmHg 77%
    04:00 +5°C° 0 mm 4 mps 744 mmHg 79%
    05:00 +5°C° 0 mm 4 mps 744 mmHg 80%
    06:00 +7°C° 0 mm 4 mps 743 mmHg 76%
    07:00 +9°C° 0 mm 5 mps 743 mmHg 71%
    08:00 +10°C° 0 mm 6 mps 742 mmHg 66%
    09:00 +12°C° 0 mm 7 mps 742 mmHg 60%
    10:00 +15°C° 0 mm 7 mps 741 mmHg 54%
    11:00 +17°C° 0 mm 8 mps 741 mmHg 48%
    12:00 +17°C° 0.1 mm 8 mps 740 mmHg 47%
    13:00 +18°C° 0.1 mm 8 mps 739 mmHg 46%
    14:00 +18°C° 0.1 mm 8 mps 739 mmHg 45%
    15:00 +17°C° 0.5 mm 8 mps 738 mmHg 51%
    16:00 +16°C° 0.5 mm 9 mps 737 mmHg 56%
    17:00 +15°C° 0.5 mm 9 mps 737 mmHg 61%
    18:00 +12°C° 1.3 mm 8 mps 737 mmHg 69%
    19:00 +10°C° 1.3 mm 7 mps 737 mmHg 77%
    20:00 +8°C° 1.3 mm 7 mps 737 mmHg 84%
    21:00 +5°C° 0.3 mm 7 mps 738 mmHg 83%
    22:00 +3°C° 0.3 mm 7 mps 739 mmHg 82%
    23:00 0°C° 0.3 mm 7 mps 739 mmHg 80%

    14 April, Tuesday

    Time Temperature Precipitation Wind Pressure Humidity
    00:00 0°C° 0.2 mm 7 mps 740 mmHg 77%
    01:00 -1°C° 0.2 mm 7 mps 741 mmHg 74%
    02:00 -2°C° 0.2 mm 7 mps 742 mmHg 71%
    03:00 -3°C° 0 mm 7 mps 742 mmHg 71%
    04:00 -3°C° 0 mm 7 mps 743 mmHg 71%
    05:00 -4°C° 0 mm 6 mps 743 mmHg 71%
    06:00 -3°C° 0 mm 7 mps 743 mmHg 66%
    07:00 -2°C° 0 mm 8 mps 743 mmHg 62%
    08:00 -1°C° 0 mm 9 mps 743 mmHg 57%
    09:00 0°C° 0 mm 9 mps 743 mmHg 54%
    10:00 0°C° 0 mm 10 mps 743 mmHg 51%
    11:00 +1°C° 0 mm 10 mps 743 mmHg 48%
    12:00 +2°C° 0 mm 10 mps 743 mmHg 49%
    13:00 +2°C° 0 mm 10 mps 743 mmHg 49%
    14:00 +2°C° 0 mm 9 mps 743 mmHg 50%
    15:00 +2°C° 0.1 mm 9 mps 743 mmHg 55%
    16:00 +2°C° 0.1 mm 9 mps 743 mmHg 60%
    17:00 +2°C° 0.1 mm 9 mps 743 mmHg 65%
    18:00 +1°C° 0.1 mm 9 mps 743 mmHg 68%
    19:00 0°C° 0.1 mm 8 mps 744 mmHg 70%
    20:00 -1°C° 0.1 mm 8 mps 744 mmHg 72%
    21:00 -1°C° 0 mm 8 mps 744 mmHg 74%
    22:00 -2°C° 0 mm 7 mps 745 mmHg 77%
    23:00 -2°C° 0 mm 7 mps 745 mmHg 79%
    Show more